contact:dominique.lefevre@mio.osupytheas.fr, maurice.libes@osupytheas.fr, didier.mallarino@osupytheas.fr
Project:EMSO http://www.emso-fr.org/EMSO-France
Depth: 2436.0 m
Title:EMSO Ligure Ouest : Data MII capteur AQUADOPP
Date,Latitude,Longitude,X_East,Y_North,Z_Up,Amplitude_X,Amplitude_Y,Amplitude_Z,Batterie,SoundSpeed,Heading,Pitch,Roll,Pressure,TIS,Speed,Direction
, degrees North, degrees East, m.s-1, m.s-1,m.s-1, 1, 1, 1, Volt, m.s-1, degree, degree, degree, dbar, degree_C, m.s-1, degree
2021-04-26T00:04:03,42.805,6.029,0.011,-0.016,-0.006,103.0,103.0,101.0,13.4,1505.2,327.7,-0.7,1.8,2469.286,13.28,0.019,145.5
2021-04-26T00:07:03,42.805,6.029,0.028,-0.018,0.04,104.0,104.0,101.0,13.3,1505.2,325.3,-0.8,1.8,2469.284,13.28,0.033,122.7
2021-04-26T00:10:03,42.805,6.029,0.036,-0.019,0.016,102.0,104.0,103.0,13.4,1505.2,327.6,-0.8,1.8,2469.272,13.28,0.04,117.8
2021-04-26T00:13:03,42.805,6.029,0.026,-0.016,0.022,104.0,102.0,102.0,13.4,1505.2,327.3,-0.7,1.8,2469.293,13.28,0.03,121.6
2021-04-26T00:16:03,42.805,6.029,0.03,-0.007,0.022,103.0,104.0,101.0,13.3,1505.2,323.4,-0.8,1.8,2469.263,13.28,0.03,103.1
2021-04-26T00:19:03,42.805,6.029,0.02,-0.016,0.028,104.0,105.0,102.0,13.4,1505.2,327.6,-0.8,1.8,2469.267,13.28,0.025,128.7
2021-04-26T00:22:03,42.805,6.029,0.034,-0.008,-0.016,104.0,105.0,101.0,13.4,1505.2,328.4,-0.7,1.8,2469.284,13.28,0.034,103.2
2021-04-26T00:25:03,42.805,6.029,0.03,-0.019,0.027,102.0,103.0,102.0,13.4,1505.2,327.8,-0.7,1.8,2469.281,13.28,0.035,122.3
2021-04-26T00:28:03,42.805,6.029,0.036,-0.003,0.007,103.0,103.0,103.0,13.3,1505.2,325.9,-0.8,1.8,2469.27,13.28,0.036,94.8
2021-04-26T00:31:03,42.805,6.029,0.02,-0.019,0.006,104.0,102.0,102.0,13.4,1505.2,327.5,-0.8,1.8,2469.242,13.28,0.027,133.5
2021-04-26T00:34:03,42.805,6.029,0.021,-0.012,0.002,103.0,103.0,101.0,13.4,1505.2,325.1,-0.7,1.8,2469.295,13.28,0.024,119.7
2021-04-26T00:37:03,42.805,6.029,0.03,-0.011,0.034,103.0,105.0,100.0,13.4,1505.2,324.4,-0.7,1.8,2469.271,13.28,0.031,110.1
2021-04-26T00:40:03,42.805,6.029,0.012,-0.009,0.01,104.0,103.0,103.0,13.4,1505.2,327.3,-0.8,1.8,2469.279,13.28,0.015,126.9
2021-04-26T00:43:03,42.805,6.029,0.034,-0.015,0.013,102.0,102.0,102.0,13.4,1505.2,328.8,-0.8,1.8,2469.284,13.28,0.037,113.8
2021-04-26T00:46:03,42.805,6.029,0.045,-0.012,0.021,103.0,103.0,101.0,13.4,1505.2,328.1,-0.7,1.8,2469.252,13.28,0.046,104.9
2021-04-26T00:49:03,42.805,6.029,0.003,-0.011,0.005,102.0,103.0,102.0,13.4,1505.2,325.3,-0.7,1.8,2469.294,13.28,0.011,164.7
2021-04-26T00:52:03,42.805,6.029,0.008,-0.011,-0.004,102.0,104.0,102.0,13.4,1505.2,327.4,-0.8,1.8,2469.289,13.28,0.013,144.0
2021-04-26T00:55:03,42.805,6.029,0.028,-0.044,-0.006,103.0,103.0,101.0,13.4,1505.2,323.6,-0.7,1.8,2469.262,13.28,0.052,147.5
2021-04-26T00:58:03,42.805,6.029,0.007,-0.001,-0.02,103.0,103.0,101.0,13.4,1505.2,329.1,-0.8,1.8,2469.298,13.28,0.007,98.1
2021-04-26T01:04:03,42.805,6.029,0.026,0.0,0.017,102.0,103.0,102.0,13.3,1505.2,326.1,-0.8,1.8,2469.307,13.28,0.026,90.0
2021-04-26T01:07:03,42.805,6.029,0.023,-0.022,0.0,103.0,102.0,102.0,13.4,1505.2,326.4,-0.8,1.8,2469.321,13.28,0.031,133.7
2021-04-26T01:10:03,42.805,6.029,0.027,-0.008,0.0,104.0,103.0,101.0,13.4,1505.2,328.0,-0.7,1.8,2469.344,13.28,0.028,106.5
2021-04-26T01:13:03,42.805,6.029,0.013,-0.001,0.01,104.0,102.0,101.0,13.3,1505.2,324.2,-0.8,1.8,2469.327,13.28,0.013,94.4
2021-04-26T01:16:03,42.805,6.029,0.034,-0.026,-0.003,102.0,103.0,101.0,13.3,1505.2,327.9,-0.7,1.8,2469.332,13.28,0.042,127.4
2021-04-26T01:19:03,42.805,6.029,0.033,-0.01,0.016,102.0,103.0,102.0,13.3,1505.2,325.0,-0.8,1.8,2469.362,13.28,0.034,106.9
2021-04-26T01:22:03,42.805,6.029,0.034,0.001,-0.003,103.0,103.0,100.0,13.3,1505.2,326.0,-0.7,1.8,2469.341,13.28,0.034,88.3
2021-04-26T01:25:03,42.805,6.029,0.015,-0.005,-0.005,103.0,103.0,101.0,13.4,1505.2,326.9,-0.8,1.8,2469.37,13.28,0.015,108.4
2021-04-26T01:28:03,42.805,6.029,0.022,0.004,0.023,103.0,102.0,102.0,13.4,1505.2,324.5,-0.8,1.8,2469.373,13.28,0.022,79.7
2021-04-26T01:31:03,42.805,6.029,0.004,-0.025,-0.012,102.0,102.0,102.0,13.4,1505.2,326.9,-0.7,1.9,2469.359,13.28,0.025,170.9
2021-04-26T01:34:03,42.805,6.029,0.035,-0.009,0.021,102.0,102.0,101.0,13.3,1505.2,324.2,-0.8,1.8,2469.37,13.28,0.036,104.4
2021-04-26T01:37:03,42.805,6.029,0.03,-0.001,0.031,102.0,102.0,102.0,13.4,1505.2,325.6,-0.7,1.8,2469.381,13.28,0.03,91.9
2021-04-26T01:40:03,42.805,6.029,0.029,-0.024,0.007,103.0,104.0,101.0,13.4,1505.2,328.1,-0.7,1.8,2469.331,13.28,0.037,129.6
2021-04-26T01:43:03,42.805,6.029,0.018,-0.003,0.011,102.0,102.0,103.0,13.4,1505.2,327.9,-0.8,1.9,2469.359,13.28,0.018,99.5
2021-04-26T01:46:03,42.805,6.029,0.026,-0.013,0.027,104.0,104.0,102.0,13.4,1505.2,323.8,-0.8,1.8,2469.379,13.28,0.029,116.6
2021-04-26T01:49:03,42.805,6.029,0.026,-0.018,-0.001,102.0,104.0,102.0,13.4,1505.2,325.4,-0.8,1.8,2469.4,13.28,0.031,124.7
2021-04-26T01:52:03,42.805,6.029,0.004,-0.016,0.002,104.0,103.0,100.0,13.4,1505.2,327.5,-0.7,1.8,2469.35,13.28,0.016,166.0
2021-04-26T01:55:03,42.805,6.029,0.026,-0.015,0.017,101.0,103.0,102.0,13.4,1505.2,327.3,-0.7,1.8,2469.419,13.28,0.03,120.0
2021-04-26T01:58:03,42.805,6.029,0.03,0.001,0.037,102.0,102.0,101.0,13.3,1505.2,325.9,-0.7,1.8,2469.384,13.28,0.03,88.1
2021-04-26T02:04:03,42.805,6.029,0.009,-0.02,-0.005,103.0,103.0,101.0,13.4,1505.2,325.7,-0.8,1.9,2469.389,13.28,0.021,155.8
2021-04-26T02:07:03,42.805,6.029,0.06,-0.021,0.026,103.0,104.0,101.0,13.3,1505.2,325.5,-0.7,1.8,2469.381,13.28,0.063,109.3
2021-04-26T02:10:03,42.805,6.029,0.043,-0.038,0.007,102.0,103.0,102.0,13.4,1505.2,326.6,-0.7,1.8,2469.353,13.28,0.057,131.5
2021-04-26T02:13:03,42.805,6.029,0.017,-0.032,0.014,103.0,103.0,101.0,13.4,1505.2,327.2,-0.8,1.8,2469.401,13.28,0.036,152.0
2021-04-26T02:16:03,42.805,6.029,0.024,-0.009,0.006,102.0,103.0,101.0,13.3,1505.2,325.0,-0.8,1.8,2469.39,13.28,0.025,110.6
2021-04-26T02:19:03,42.805,6.029,0.021,-0.005,0.026,102.0,102.0,101.0,13.3,1505.2,324.2,-0.7,1.8,2469.369,13.28,0.021,103.4
2021-04-26T02:22:03,42.805,6.029,0.029,-0.011,0.019,103.0,104.0,102.0,13.4,1505.2,329.4,-0.7,1.8,2469.415,13.28,0.031,110.8
2021-04-26T02:25:03,42.805,6.029,0.05,-0.033,0.02,102.0,103.0,101.0,13.3,1505.2,326.4,-0.8,1.8,2469.393,13.28,0.059,123.4
2021-04-26T02:28:03,42.805,6.029,0.049,-0.018,0.001,102.0,103.0,101.0,13.4,1505.2,327.7,-0.7,1.8,2469.384,13.28,0.052,110.2
2021-04-26T02:31:03,42.805,6.029,0.024,-0.027,-0.001,104.0,102.0,102.0,13.4,1505.2,325.8,-0.8,1.8,2469.371,13.28,0.036,138.4
2021-04-26T02:34:03,42.805,6.029,0.03,-0.013,0.008,102.0,104.0,101.0,13.3,1505.2,328.4,-0.7,1.8,2469.411,13.28,0.032,113.4
2021-04-26T02:37:03,42.805,6.029,0.016,0.005,0.006,103.0,104.0,101.0,13.4,1505.2,328.2,-0.8,1.8,2469.423,13.28,0.016,72.6
2021-04-26T02:40:03,42.805,6.029,0.035,-0.012,0.007,103.0,103.0,103.0,13.4,1505.2,327.8,-0.8,1.8,2469.443,13.28,0.037,108.9
2021-04-26T02:43:03,42.805,6.029,0.023,-0.027,-0.017,103.0,104.0,101.0,13.4,1505.2,327.5,-0.7,1.8,2469.378,13.28,0.035,139.6
2021-04-26T02:46:03,42.805,6.029,0.035,-0.026,0.01,104.0,104.0,102.0,13.4,1505.2,324.4,-0.7,1.8,2469.388,13.28,0.043,126.6
2021-04-26T02:49:03,42.805,6.029,0.04,-0.024,-0.028,102.0,103.0,102.0,13.3,1505.2,328.9,-0.8,1.8,2469.374,13.28,0.046,121.0
2021-04-26T02:52:03,42.805,6.029,0.046,0.008,0.004,103.0,105.0,102.0,13.4,1505.2,326.5,-0.8,1.8,2469.409,13.28,0.046,80.1
2021-04-26T02:55:03,42.805,6.029,0.024,-0.006,0.029,103.0,104.0,101.0,13.4,1505.2,325.2,-0.8,1.8,2469.405,13.28,0.024,104.0
2021-04-26T02:58:03,42.805,6.029,0.034,0.002,0.017,104.0,104.0,101.0,13.4,1505.2,326.4,-0.8,1.8,2469.399,13.28,0.034,86.6
2021-04-26T03:04:03,42.805,6.029,0.019,-0.008,0.016,103.0,104.0,101.0,13.4,1505.2,326.6,-0.8,1.8,2469.441,13.28,0.02,112.8
2021-04-26T03:07:03,42.805,6.029,0.025,0.0,0.006,104.0,104.0,102.0,13.3,1505.2,328.4,-0.7,1.8,2469.418,13.28,0.025,90.0
2021-04-26T03:10:03,42.805,6.029,0.022,-0.016,0.021,103.0,105.0,102.0,13.4,1505.2,327.0,-0.8,1.8,2469.467,13.28,0.027,126.0
2021-04-26T03:13:03,42.805,6.029,0.025,-0.009,-0.006,103.0,104.0,101.0,13.4,1505.2,327.9,-0.8,1.8,2469.405,13.28,0.026,109.8
2021-04-26T03:16:03,42.805,6.029,0.036,-0.023,0.02,103.0,105.0,102.0,13.4,1505.2,327.8,-0.8,1.8,2469.411,13.28,0.042,122.6
2021-04-26T03:19:03,42.805,6.029,0.016,-0.015,0.03,103.0,103.0,102.0,13.4,1505.2,323.2,-0.7,1.8,2469.465,13.28,0.021,133.1
2021-04-26T03:22:03,42.805,6.029,0.035,-0.009,0.026,104.0,105.0,101.0,13.4,1505.2,325.2,-0.8,1.8,2469.445,13.28,0.036,104.4
2021-04-26T03:25:03,42.805,6.029,0.03,-0.009,0.05,105.0,105.0,103.0,13.4,1505.2,328.9,-0.8,1.8,2469.448,13.28,0.031,106.7
2021-04-26T03:28:03,42.805,6.029,0.034,-0.022,0.033,103.0,105.0,101.0,13.4,1505.2,325.1,-0.7,1.8,2469.448,13.28,0.04,122.9
2021-04-26T03:31:03,42.805,6.029,0.038,-0.019,0.014,104.0,104.0,102.0,13.4,1505.2,325.8,-0.7,1.8,2469.451,13.28,0.042,116.6
2021-04-26T03:34:03,42.805,6.029,0.049,-0.026,0.0,103.0,105.0,102.0,13.4,1505.2,325.4,-0.7,1.8,2469.472,13.28,0.055,117.9
2021-04-26T03:37:03,42.805,6.029,0.037,-0.015,-0.018,104.0,104.0,102.0,13.4,1505.2,324.9,-0.7,1.8,2469.455,13.28,0.039,112.1
2021-04-26T03:40:03,42.805,6.029,0.02,-0.035,0.012,103.0,104.0,102.0,13.4,1505.2,325.2,-0.8,1.8,2469.498,13.28,0.04,150.3
2021-04-26T03:43:03,42.805,6.029,0.028,-0.021,-0.003,103.0,104.0,103.0,13.4,1505.2,327.3,-0.8,1.8,2469.508,13.28,0.035,126.9
2021-04-26T03:46:03,42.805,6.029,0.026,-0.013,0.002,104.0,104.0,102.0,13.4,1505.2,324.9,-0.8,1.8,2469.478,13.28,0.029,116.6
2021-04-26T03:49:03,42.805,6.029,0.008,-0.007,-0.003,104.0,103.0,104.0,13.4,1505.2,323.9,-0.8,1.8,2469.503,13.28,0.01,131.2
2021-04-26T03:52:03,42.805,6.029,0.021,-0.017,0.024,103.0,104.0,102.0,13.3,1505.2,328.7,-0.8,1.8,2469.533,13.28,0.027,129.0
2021-04-26T03:55:03,42.805,6.029,0.026,-0.005,-0.007,104.0,103.0,101.0,13.4,1505.2,329.0,-0.7,1.8,2469.462,13.28,0.026,100.9
2021-04-26T03:58:03,42.805,6.029,0.032,-0.003,0.048,104.0,104.0,101.0,13.4,1505.2,325.7,-0.7,1.8,2469.519,13.28,0.032,95.4
2021-04-26T04:04:03,42.805,6.029,0.031,-0.02,0.023,103.0,103.0,102.0,13.4,1505.2,326.6,-0.7,1.8,2469.574,13.28,0.036,122.8
2021-04-26T04:07:03,42.805,6.029,0.025,-0.02,0.025,102.0,103.0,101.0,13.4,1505.2,326.2,-0.8,1.8,2469.546,13.28,0.032,128.7
2021-04-26T04:10:03,42.805,6.029,0.025,-0.013,0.016,102.0,103.0,102.0,13.4,1505.2,324.2,-0.8,1.8,2469.557,13.28,0.028,117.5
2021-04-26T04:13:03,42.805,6.029,0.036,-0.019,0.043,102.0,103.0,102.0,13.4,1505.2,325.6,-0.7,1.8,2469.576,13.28,0.04,117.8
2021-04-26T04:16:03,42.805,6.029,0.027,-0.004,0.01,102.0,104.0,102.0,13.3,1505.2,328.0,-0.8,1.8,2469.562,13.28,0.027,98.4
2021-04-26T04:19:03,42.805,6.029,0.009,-0.008,0.003,102.0,103.0,101.0,13.4,1505.2,326.9,-0.8,1.8,2469.551,13.28,0.012,131.6
2021-04-26T04:22:03,42.805,6.029,0.025,-0.01,-0.029,104.0,103.0,101.0,13.4,1505.2,323.7,-0.8,1.8,2469.587,13.28,0.026,111.8
2021-04-26T04:25:03,42.805,6.029,0.022,-0.001,0.02,104.0,104.0,101.0,13.4,1505.2,328.6,-0.8,1.8,2469.632,13.28,0.022,92.6
2021-04-26T04:28:03,42.805,6.029,0.019,0.002,0.025,104.0,103.0,101.0,13.3,1505.2,328.6,-0.7,1.8,2469.603,13.28,0.019,84.0
2021-04-26T04:31:03,42.805,6.029,0.036,-0.037,-0.003,102.0,103.0,102.0,13.4,1505.2,328.1,-0.7,1.8,2469.635,13.28,0.051,135.8
2021-04-26T04:34:03,42.805,6.029,0.015,-0.015,0.016,102.0,102.0,101.0,13.4,1505.2,325.7,-0.7,1.8,2469.664,13.28,0.021,135.0
2021-04-26T04:37:03,42.805,6.029,0.023,-0.009,-0.02,101.0,103.0,102.0,13.4,1505.2,327.5,-0.7,1.8,2469.682,13.28,0.024,111.4
2021-04-26T04:40:03,42.805,6.029,0.036,-0.01,0.011,102.0,103.0,101.0,13.4,1505.2,328.6,-0.8,1.8,2469.708,13.28,0.037,105.5
2021-04-26T04:43:03,42.805,6.029,0.022,-0.012,0.011,102.0,103.0,101.0,13.4,1505.2,325.8,-0.8,1.8,2469.684,13.28,0.025,118.6
2021-04-26T04:46:03,42.805,6.029,0.021,-0.032,0.013,102.0,103.0,101.0,13.3,1505.2,327.1,-0.8,1.8,2469.717,13.28,0.038,146.7
2021-04-26T04:49:03,42.805,6.029,0.025,-0.007,0.006,101.0,104.0,101.0,13.4,1505.2,324.6,-0.8,1.8,2469.722,13.28,0.025,105.6
2021-04-26T04:52:03,42.805,6.029,0.034,-0.018,-0.017,103.0,102.0,102.0,13.3,1505.2,328.2,-0.7,1.8,2469.736,13.28,0.038,117.9
2021-04-26T04:55:03,42.805,6.029,0.019,-0.006,0.011,103.0,101.0,101.0,13.4,1505.2,327.9,-0.7,1.8,2469.74,13.28,0.019,107.5
2021-04-26T04:58:03,42.805,6.029,0.037,-0.032,0.027,102.0,102.0,102.0,13.4,1505.2,325.8,-0.8,1.8,2469.807,13.28,0.048,130.9
2021-04-26T05:04:03,42.805,6.029,0.013,-0.006,0.009,102.0,103.0,101.0,13.3,1505.2,327.6,-0.8,1.8,2469.851,13.28,0.014,114.8
2021-04-26T05:07:03,42.805,6.029,0.027,-0.034,0.0,102.0,102.0,101.0,13.3,1505.2,327.6,-0.8,1.8,2469.831,13.28,0.043,141.5
2021-04-26T05:10:03,42.805,6.029,0.032,-0.016,0.003,102.0,103.0,102.0,13.3,1505.2,327.5,-0.8,1.8,2469.873,13.28,0.035,116.6
2021-04-26T05:13:03,42.805,6.029,0.015,-0.016,0.005,102.0,103.0,101.0,13.3,1505.2,324.9,-0.8,1.8,2469.874,13.28,0.021,136.9
2021-04-26T05:16:03,42.805,6.029,0.038,-0.025,0.017,102.0,103.0,102.0,13.4,1505.2,324.6,-0.8,1.8,2469.905,13.28,0.045,123.3
2021-04-26T05:19:03,42.805,6.029,0.017,-0.032,0.013,102.0,103.0,102.0,13.3,1505.2,328.8,-0.7,1.8,2469.902,13.28,0.036,152.0
2021-04-26T05:22:03,42.805,6.029,0.04,-0.021,-0.02,101.0,103.0,102.0,13.4,1505.2,327.8,-0.8,1.8,2469.922,13.28,0.045,117.7
2021-04-26T05:25:03,42.805,6.029,0.02,-0.004,0.014,103.0,102.0,102.0,13.3,1505.2,326.1,-0.8,1.8,2469.9,13.28,0.02,101.3
2021-04-26T05:28:03,42.805,6.029,0.015,0.0,0.006,102.0,104.0,101.0,13.4,1505.2,325.4,-0.7,1.8,2469.909,13.28,0.015,90.0
2021-04-26T05:31:03,42.805,6.029,0.026,-0.02,0.017,101.0,103.0,101.0,13.3,1505.2,325.4,-0.8,1.8,2469.966,13.28,0.032,127.6
2021-04-26T05:34:03,42.805,6.029,0.027,-0.03,0.002,102.0,104.0,101.0,13.4,1505.2,324.1,-0.8,1.9,2469.975,13.28,0.04,138.0
2021-04-26T05:37:03,42.805,6.029,0.017,-0.004,0.022,102.0,105.0,101.0,13.3,1505.2,328.2,-0.8,1.8,2469.98,13.28,0.017,103.2
2021-04-26T05:40:03,42.805,6.029,0.013,-0.018,0.008,102.0,103.0,101.0,13.4,1505.2,328.8,-0.7,1.8,2469.996,13.28,0.022,144.2
2021-04-26T05:43:03,42.805,6.029,0.032,-0.016,0.021,102.0,103.0,101.0,13.4,1505.2,326.4,-0.8,1.8,2469.947,13.28,0.035,116.6
2021-04-26T05:46:03,42.805,6.029,0.022,-0.019,0.011,101.0,103.0,102.0,13.4,1505.2,327.4,-0.7,1.9,2469.967,13.28,0.029,130.8
2021-04-26T05:49:03,42.805,6.029,0.019,-0.022,0.001,101.0,103.0,101.0,13.4,1505.2,328.2,-0.7,1.9,2469.958,13.28,0.029,139.2
2021-04-26T05:52:03,42.805,6.029,0.054,-0.023,0.022,101.0,104.0,100.0,13.4,1505.2,325.7,-0.7,1.8,2469.963,13.28,0.058,113.1
2021-04-26T05:55:03,42.805,6.029,0.057,-0.01,0.014,100.0,103.0,101.0,13.4,1505.2,324.7,-0.8,1.8,2469.948,13.28,0.057,99.9
2021-04-26T05:58:03,42.805,6.029,0.001,-0.038,-0.005,100.0,103.0,101.0,13.4,1505.2,328.7,-0.8,1.8,2469.958,13.28,0.038,178.5
2021-04-26T06:04:03,42.805,6.029,0.014,-0.008,0.012,103.0,102.0,102.0,13.3,1505.2,326.9,-0.8,1.8,2469.95,13.28,0.016,119.7
2021-04-26T06:07:03,42.805,6.029,0.029,-0.024,-0.005,102.0,103.0,100.0,13.4,1505.2,327.7,-0.7,1.8,2469.968,13.28,0.037,129.6
2021-04-26T06:10:03,42.805,6.029,0.018,-0.021,0.03,103.0,102.0,101.0,13.4,1505.2,327.3,-0.8,1.9,2469.933,13.28,0.027,139.4
2021-04-26T06:13:03,42.805,6.029,0.018,-0.026,-0.014,103.0,102.0,102.0,13.3,1505.2,324.4,-0.7,1.8,2469.917,13.28,0.031,145.3
2021-04-26T06:16:03,42.805,6.029,0.017,-0.027,0.003,102.0,104.0,102.0,13.4,1505.2,324.2,-0.8,1.8,2469.911,13.28,0.031,147.8
2021-04-26T06:19:03,42.805,6.029,0.009,-0.003,0.034,101.0,104.0,101.0,13.4,1505.2,324.1,-0.7,1.8,2469.914,13.28,0.009,108.4
2021-04-26T06:22:03,42.805,6.029,0.046,-0.019,0.025,103.0,103.0,101.0,13.4,1505.2,325.2,-0.8,1.8,2469.903,13.28,0.049,112.4
2021-04-26T06:25:03,42.805,6.029,0.033,-0.022,0.018,103.0,103.0,102.0,13.4,1505.2,325.6,-0.8,1.8,2469.921,13.28,0.039,123.7
2021-04-26T06:28:03,42.805,6.029,0.012,-0.024,0.021,102.0,102.0,102.0,13.4,1505.2,328.7,-0.7,1.8,2469.863,13.28,0.026,153.4
2021-04-26T06:31:03,42.805,6.029,0.026,-0.035,0.004,102.0,102.0,100.0,13.3,1505.2,326.9,-0.8,1.8,2469.87,13.28,0.043,143.4
2021-04-26T06:34:03,42.805,6.029,0.028,-0.037,0.008,102.0,103.0,101.0,13.3,1505.2,327.6,-0.8,1.8,2469.855,13.28,0.046,142.9
2021-04-26T06:37:03,42.805,6.029,0.03,-0.02,0.007,103.0,103.0,102.0,13.4,1505.2,324.6,-0.8,1.8,2469.831,13.28,0.036,123.7
2021-04-26T06:40:03,42.805,6.029,0.037,-0.031,0.02,101.0,104.0,101.0,13.4,1505.2,329.0,-0.8,1.8,2469.88,13.28,0.048,130.0
2021-04-26T06:43:03,42.805,6.029,0.034,-0.027,-0.011,103.0,105.0,101.0,13.4,1505.2,328.4,-0.7,1.8,2469.855,13.28,0.043,128.5
2021-04-26T06:46:03,42.805,6.029,0.031,-0.013,0.024,104.0,103.0,100.0,13.4,1505.2,325.2,-0.8,1.8,2469.868,13.28,0.033,112.7
2021-04-26T06:49:03,42.805,6.029,0.042,-0.006,0.013,101.0,104.0,102.0,13.3,1505.2,327.6,-0.8,1.8,2469.855,13.28,0.042,98.1
2021-04-26T06:52:03,42.805,6.029,0.032,-0.031,-0.011,103.0,103.0,101.0,13.3,1505.2,328.6,-0.7,1.8,2469.828,13.28,0.044,134.1
2021-04-26T06:55:03,42.805,6.029,0.028,-0.029,0.029,102.0,102.0,101.0,13.3,1505.2,326.7,-0.8,1.8,2469.835,13.28,0.04,136.0
2021-04-26T06:58:03,42.805,6.029,0.027,-0.031,-0.004,102.0,103.0,102.0,13.4,1505.2,326.3,-0.7,1.8,2469.844,13.28,0.041,138.9
2021-04-26T07:04:03,42.805,6.029,0.035,-0.015,0.019,103.0,103.0,101.0,13.4,1505.2,327.3,-0.8,1.8,2469.847,13.28,0.038,113.2
2021-04-26T07:07:03,42.805,6.029,0.038,-0.002,0.039,101.0,104.0,101.0,13.4,1505.2,327.9,-0.8,1.8,2469.854,13.28,0.038,93.0
2021-04-26T07:10:03,42.805,6.029,0.022,-0.016,0.011,103.0,102.0,101.0,13.4,1505.2,329.0,-0.7,1.8,2469.819,13.28,0.027,126.0
2021-04-26T07:13:03,42.805,6.029,0.014,-0.005,0.014,102.0,102.0,102.0,13.3,1505.2,328.9,-0.7,1.8,2469.822,13.28,0.014,109.6
2021-04-26T07:16:03,42.805,6.029,0.021,-0.017,-0.004,103.0,103.0,102.0,13.4,1505.2,327.9,-0.8,1.8,2469.82,13.28,0.027,129.0
2021-04-26T07:19:03,42.805,6.029,0.01,-0.027,0.005,102.0,104.0,101.0,13.4,1505.2,326.8,-0.8,1.8,2469.826,13.28,0.028,159.7
2021-04-26T07:22:03,42.805,6.029,0.018,-0.022,0.0,103.0,104.0,102.0,13.4,1505.2,325.5,-0.8,1.8,2469.819,13.28,0.028,140.7
2021-04-26T07:25:03,42.805,6.029,0.045,-0.021,0.051,103.0,104.0,101.0,13.4,1505.2,324.6,-0.8,1.9,2469.754,13.28,0.049,115.0
2021-04-26T07:28:03,42.805,6.029,0.057,-0.024,0.033,103.0,104.0,102.0,13.4,1505.2,327.0,-0.8,1.9,2469.745,13.28,0.061,112.8
2021-04-26T07:31:03,42.805,6.029,0.033,-0.021,0.011,102.0,105.0,101.0,13.4,1505.2,324.5,-0.7,1.8,2469.795,13.28,0.039,122.5
2021-04-26T07:34:03,42.805,6.029,0.017,-0.008,0.028,104.0,103.0,101.0,13.3,1505.2,325.0,-0.8,1.8,2469.772,13.28,0.018,115.2
2021-04-26T07:37:03,42.805,6.029,0.023,-0.013,-0.012,100.0,103.0,102.0,13.4,1505.2,323.8,-0.8,1.8,2469.724,13.28,0.026,119.5
2021-04-26T07:40:03,42.805,6.029,0.006,-0.009,0.0,103.0,102.0,101.0,13.3,1505.2,323.9,-0.7,1.8,2469.725,13.28,0.01,146.3
2021-04-26T07:43:03,42.805,6.029,0.007,-0.01,0.009,102.0,103.0,102.0,13.4,1505.2,327.1,-0.8,1.8,2469.719,13.28,0.012,145.0
2021-04-26T07:46:03,42.805,6.029,0.041,-0.012,0.024,102.0,104.0,101.0,13.4,1505.2,327.3,-0.8,1.8,2469.708,13.28,0.042,106.3
2021-04-26T07:49:03,42.805,6.029,0.022,-0.002,0.015,102.0,104.0,100.0,13.4,1505.2,324.6,-0.8,1.8,2469.761,13.28,0.022,95.2
2021-04-26T07:52:03,42.805,6.029,0.022,-0.004,0.033,103.0,103.0,101.0,13.3,1505.2,328.3,-0.7,1.8,2469.731,13.28,0.022,100.3
2021-04-26T07:55:03,42.805,6.029,0.008,-0.035,0.006,101.0,103.0,102.0,13.4,1505.2,327.2,-0.8,1.8,2469.667,13.28,0.035,167.1
2021-04-26T07:58:03,42.805,6.029,0.033,-0.01,0.026,103.0,103.0,102.0,13.3,1505.2,327.0,-0.8,1.8,2469.716,13.28,0.034,106.9
2021-04-26T08:04:03,42.805,6.029,0.031,-0.033,0.032,103.0,103.0,101.0,13.3,1505.2,324.4,-0.7,1.8,2469.731,13.28,0.045,136.8
2021-04-26T08:07:03,42.805,6.029,0.0,-0.012,-0.003,102.0,103.0,101.0,13.4,1505.2,328.7,-0.8,1.8,2469.693,13.28,0.012,180.0
2021-04-26T08:10:03,42.805,6.029,0.025,-0.026,0.018,103.0,104.0,100.0,13.4,1505.2,325.3,-0.7,1.8,2469.768,13.28,0.036,136.1
2021-04-26T08:13:03,42.805,6.029,0.025,-0.015,0.02,101.0,104.0,100.0,13.3,1505.2,324.6,-0.8,1.8,2469.7,13.28,0.029,121.0
2021-04-26T08:16:03,42.805,6.029,0.026,-0.025,-0.011,102.0,102.0,102.0,13.4,1505.2,323.9,-0.8,1.8,2469.702,13.28,0.036,133.9
2021-04-26T08:19:03,42.805,6.029,0.044,-0.013,0.003,102.0,104.0,101.0,13.4,1505.2,324.8,-0.7,1.8,2469.741,13.28,0.045,106.5
2021-04-26T08:22:03,42.805,6.029,0.026,-0.014,0.022,103.0,102.0,101.0,13.4,1505.2,328.0,-0.8,1.8,2469.683,13.28,0.029,118.3
2021-04-26T08:25:03,42.805,6.029,0.032,-0.023,0.028,103.0,103.0,101.0,13.4,1505.2,328.6,-0.7,1.8,2469.681,13.28,0.039,125.7
2021-04-26T08:28:03,42.805,6.029,0.017,0.0,0.014,103.0,102.0,101.0,13.4,1505.2,327.5,-0.8,1.9,2469.688,13.28,0.017,90.0
2021-04-26T08:31:03,42.805,6.029,0.04,-0.005,0.006,102.0,103.0,101.0,13.4,1505.2,324.0,-0.7,1.8,2469.701,13.28,0.04,97.1
2021-04-26T08:34:03,42.805,6.029,0.027,-0.015,-0.022,102.0,103.0,101.0,13.4,1505.2,327.2,-0.8,1.8,2469.729,13.28,0.03,119.1
2021-04-26T08:37:03,42.805,6.029,-0.006,-0.001,0.02,103.0,103.0,101.0,13.4,1505.2,326.3,-0.7,1.8,2469.701,13.28,0.006,260.5
2021-04-26T08:40:03,42.805,6.029,0.026,-0.017,0.017,102.0,102.0,101.0,13.4,1505.2,326.8,-0.8,1.8,2469.708,13.28,0.031,123.2
2021-04-26T08:43:03,42.805,6.029,0.045,-0.007,0.002,103.0,103.0,101.0,13.3,1505.2,328.3,-0.7,1.8,2469.683,13.28,0.045,98.8
2021-04-26T08:46:03,42.805,6.029,0.014,-0.008,0.048,102.0,104.0,102.0,13.4,1505.2,326.0,-0.8,1.8,2469.723,13.28,0.016,119.7
2021-04-26T08:49:03,42.805,6.029,0.035,-0.02,-0.004,104.0,105.0,101.0,13.3,1505.2,329.4,-0.7,1.9,2469.682,13.28,0.04,119.7
2021-04-26T08:52:03,42.805,6.029,0.035,-0.009,0.008,102.0,106.0,100.0,13.4,1505.2,326.8,-0.8,1.8,2469.706,13.28,0.036,104.4
2021-04-26T08:55:03,42.805,6.029,0.018,-0.03,0.001,102.0,103.0,102.0,13.4,1505.2,323.5,-0.8,1.8,2469.657,13.28,0.034,149.0
2021-04-26T08:58:03,42.805,6.029,0.023,-0.025,0.016,104.0,102.0,101.0,13.4,1505.2,325.1,-0.8,1.8,2469.67,13.28,0.033,137.4
2021-04-26T09:04:03,42.805,6.029,0.024,-0.001,0.015,103.0,102.0,101.0,13.4,1505.2,327.5,-0.7,1.8,2469.675,13.28,0.024,92.4
2021-04-26T09:07:03,42.805,6.029,0.019,-0.017,0.028,102.0,104.0,101.0,13.4,1505.2,328.2,-0.8,1.8,2469.642,13.28,0.025,131.8
2021-04-26T09:10:03,42.805,6.029,0.02,-0.031,-0.013,102.0,103.0,101.0,13.4,1505.2,325.5,-0.7,1.8,2469.625,13.28,0.036,147.2
2021-04-26T09:13:03,42.805,6.029,0.034,-0.02,0.005,102.0,102.0,102.0,13.4,1505.2,325.8,-0.8,1.8,2469.671,13.28,0.039,120.5
2021-04-26T09:16:03,42.805,6.029,0.019,-0.013,0.007,104.0,104.0,102.0,13.4,1505.2,324.0,-0.7,1.8,2469.617,13.28,0.023,124.4
2021-04-26T09:19:03,42.805,6.029,0.003,-0.002,0.021,103.0,104.0,101.0,13.4,1505.2,328.9,-0.8,1.8,2469.668,13.28,0.003,123.7
2021-04-26T09:22:03,42.805,6.029,0.043,0.001,0.045,103.0,105.0,102.0,13.4,1505.2,325.7,-0.7,1.8,2469.666,13.28,0.043,88.7
2021-04-26T09:25:03,42.805,6.029,0.033,-0.006,0.033,103.0,104.0,102.0,13.4,1505.2,326.5,-0.8,1.8,2469.606,13.28,0.033,100.3
2021-04-26T09:28:03,42.805,6.029,0.033,-0.017,0.011,102.0,104.0,102.0,13.4,1505.2,323.8,-0.7,1.8,2469.624,13.28,0.037,117.3
2021-04-26T09:31:03,42.805,6.029,0.019,-0.01,0.03,102.0,103.0,101.0,13.4,1505.2,327.3,-0.8,1.8,2469.594,13.28,0.021,117.8
2021-04-26T09:34:03,42.805,6.029,0.034,-0.032,0.007,102.0,104.0,100.0,13.4,1505.2,326.1,-0.8,1.8,2469.593,13.28,0.046,133.3
2021-04-26T09:37:03,42.805,6.029,0.039,-0.017,0.008,101.0,104.0,101.0,13.3,1505.2,327.4,-0.7,1.8,2469.609,13.28,0.042,113.5
2021-04-26T09:40:03,42.805,6.029,0.011,-0.021,0.014,103.0,103.0,102.0,13.3,1505.2,324.5,-0.7,1.8,2469.602,13.28,0.023,152.4
2021-04-26T09:43:03,42.805,6.029,0.054,-0.011,0.013,102.0,106.0,101.0,13.4,1505.2,327.5,-0.8,1.8,2469.597,13.28,0.055,101.5
2021-04-26T09:46:03,42.805,6.029,0.048,-0.027,-0.001,102.0,103.0,102.0,13.4,1505.2,328.4,-0.7,1.8,2469.602,13.28,0.055,119.4
2021-04-26T09:49:03,42.805,6.029,0.055,-0.037,0.0,102.0,104.0,101.0,13.3,1505.2,327.6,-0.7,1.8,2469.53,13.28,0.066,123.9
2021-04-26T09:52:03,42.805,6.029,0.027,-0.006,0.034,102.0,103.0,102.0,13.4,1505.2,327.5,-0.8,1.8,2469.585,13.28,0.027,102.5
2021-04-26T09:55:03,42.805,6.029,0.027,-0.023,0.036,104.0,104.0,101.0,13.4,1505.2,327.6,-0.8,1.8,2469.564,13.28,0.035,130.4
2021-04-26T09:58:03,42.805,6.029,0.018,-0.011,0.016,102.0,104.0,102.0,13.3,1505.2,324.3,-0.7,1.8,2469.56,13.28,0.021,121.4